[[{"header":{"parameterUnit":"m.s-1","parameterCategory":1,"la1":30.2991,"la2":30.254,"lo1":-89.0895,"lo2":-89.0444,"dy":0.0017,"dx":0.0017,"nx":28,"ny":28,"refTime":"2023-11-22T03:00:00:Z","depth":0,"parameterNumber":2,"parameterNumberName":"U-component_of_WINDS"},"data":[0,0,0,0,0,0,0,0,0,0,0,0,0,0,0,0,0,0,0,0,0,0,0,0,0,0,0,0,0,0,0,0,0,0,0,0,0,0,0,0,0,0,0,0,0,0,0,0,0,0,0,0,0,0,0,0,0,0,-0.6073,-0.6073,0,-0.6017,-0.6016,-0.6016,-0.5933,-0.5932,-0.593,-0.5929,-0.5872,-0.5872,-0.5872,0,0,0,0,0,0,0,0,0,0,0,0,0,-0.6111,-0.611,-0.6073,-0.6073,-0.6072,-0.6017,-0.6016,-0.6016,-0.5933,-0.5932,-0.593,-0.5928,-0.5872,-0.5872,-0.5872,0,0,0,0,0,0,0,0,0,0,0,0,0,-0.6079,-0.611,-0.6074,-0.6024,-0.6019,-0.6017,-0.6016,-0.6015,-0.5934,-0.5932,-0.5929,-0.5927,-0.5872,-0.5872,-0.5872,-0.5913,0,0,-0.5871,-0.5871,0,0,0,0,0,0,0,0,-0.6081,-0.6077,-0.6032,-0.6028,-0.6022,-0.598,-0.6009,-0.5981,-0.5934,-0.5966,-0.5929,-0.5926,-0.591,-0.5906,-0.59,-0.5911,-0.5908,-0.5871,-0.5871,-0.5871,-0.5871,0,0,0,0,0,0,0,-0.6083,-0.6079,-0.6051,-0.6032,-0.6026,-0.6005,-0.5998,-0.6003,-0.5951,-0.5963,-0.5957,-0.5952,-0.5907,-0.5901,-0.5899,-0.5907,-0.5871,-0.5871,-0.587,-0.587,-0.595,-0.5952,0,0,0,0,0,0,-0.6092,-0.6082,-0.6053,-0.6049,-0.6047,-0.6007,-0.5999,-0.5996,-0.5951,-0.5942,-0.5954,-0.5948,-0.5902,-0.5899,-0.5896,-0.5943,-0.5871,-0.587,-0.587,-0.5947,-0.595,-0.5953,0,0,0,0,0,0,-0.6093,-0.609,-0.6055,-0.6064,-0.6058,-0.6008,-0.6005,-0.5996,-0.599,-0.5943,-0.5934,-0.5957,-0.5901,-0.5897,-0.591,-0.594,-0.587,-0.587,-0.5945,-0.5948,-0.5951,-0.6036,0,0,0,0,0,0,-0.6095,-0.6091,-0.6107,-0.6065,-0.6058,-0.607,-0.6007,-0.5996,-0.599,-0.5982,-0.5944,-0.5936,-0.5899,-0.5911,-0.591,-0.5938,-0.587,-0.5942,-0.5946,-0.595,-0.603,-0.6042,-0.6052,0,0,0,0,0,-0.6096,-0.6133,-0.6108,-0.6105,-0.6076,-0.6072,-0.6068,-0.6024,-0.5992,-0.6007,-0.5977,-0.5937,-0.5936,-0.5913,-0.5911,-0.594,-0.594,-0.5945,-0.595,-0.6025,-0.6039,-0.6051,0,0,0,0,0,0,-0.6179,-0.6126,-0.6098,-0.6122,-0.6102,-0.6058,-0.6075,-0.604,-0.6029,-0.6022,-0.5968,-0.596,-0.5981,-0.5961,-0.5936,-0.5978,-0.5932,-0.5937,-0.599,-0.6003,-0.6013,-0.6018,-0.587,0,0,0,0,0,-0.62,-0.6201,-0.6155,-0.618,-0.6172,-0.6126,-0.6122,-0.609,-0.6067,-0.6059,-0.6029,-0.6009,-0.6004,-0.6002,-0.5995,-0.6027,-0.6018,-0.6045,-0.6056,-0.6065,-0.607,-0.6086,-0.6098,-0.5969,-0.5969,-0.5969,0,0,-0.6244,-0.6215,-0.6219,-0.6196,-0.6177,-0.618,-0.6119,-0.6124,-0.6126,-0.6059,-0.607,-0.6048,-0.6022,-0.6045,-0.6053,-0.6029,-0.6104,-0.6072,-0.6079,-0.6079,-0.6093,-0.6105,-0.6116,-0.5973,-0.5972,-0.5972,0,0,-0.6325,-0.6303,-0.6322,-0.6304,-0.6275,-0.6244,-0.6249,-0.621,-0.6193,-0.6203,-0.6154,-0.6155,-0.6147,-0.6131,-0.6122,-0.6197,-0.6159,-0.6196,-0.6252,-0.6268,-0.6278,-0.6287,-0.6315,-0.6325,-0.6201,-0.6201,-0.6201,0,-0.6383,-0.6385,-0.6336,-0.6345,-0.6337,-0.6276,-0.6296,-0.628,-0.6251,-0.6247,-0.622,-0.621,-0.6188,-0.6207,-0.6225,-0.6219,-0.6223,-0.62,-0.6281,-0.6289,-0.6296,-0.6322,-0.6333,-0.6206,-0.6205,-0.6205,-0.6204,0,-0.6458,-0.646,-0.6478,-0.6452,-0.6446,-0.646,-0.6414,-0.6413,-0.6382,-0.6354,-0.6365,-0.6337,-0.6323,-0.6325,-0.6294,-0.6339,-0.6325,-0.629,-0.6243,-0.6314,-0.6338,-0.6347,-0.6212,-0.6211,-0.6209,-0.6208,0,0,-0.659,-0.6536,-0.6544,-0.6532,-0.6496,-0.6497,-0.6508,-0.6494,-0.6496,-0.6477,-0.6486,-0.6481,-0.6449,-0.6438,-0.6405,-0.6419,-0.6482,-0.6382,-0.6381,-0.6403,-0.6531,-0.6558,-0.657,-0.6456,-0.6458,-0.6459,-0.6533,0,-0.6665,-0.6681,-0.6638,-0.6665,-0.6667,-0.6609,-0.6619,-0.6599,-0.6573,-0.6571,-0.6542,-0.654,-0.6497,-0.649,-0.6501,-0.6472,-0.6507,-0.6466,-0.6465,-0.6465,-0.6474,-0.6582,-0.6611,-0.6682,-0.6542,-0.6544,-0.6545,0,-0.6754,-0.6741,-0.6768,-0.6731,-0.673,-0.674,-0.6724,-0.6723,-0.6698,-0.6679,-0.6667,-0.6628,-0.6637,-0.6592,-0.6604,-0.6577,-0.6574,-0.6559,-0.6561,-0.656,-0.651,-0.6586,-0.6704,-0.6715,-0.6558,-0.6557,-0.6556,0,-0.6849,-0.6838,-0.6853,-0.6844,-0.6801,-0.6809,-0.6792,-0.6765,-0.676,-0.6746,-0.6742,-0.673,-0.6724,-0.6715,-0.6674,-0.6645,-0.6692,-0.6642,-0.6676,-0.6678,-0.669,-0.669,-0.6811,-0.6686,-0.6686,-0.6686,-0.6685,0,-0.6938,-0.6957,-0.6895,-0.6905,-0.6925,-0.6875,-0.6897,-0.6873,-0.685,-0.6854,-0.6804,-0.6809,-0.6754,-0.6753,-0.6721,-0.6737,-0.6734,-0.6719,-0.671,-0.6724,-0.6726,-0.6722,-0.6716,-0.6688,-0.6688,-0.6687,-0.6687,0,-0.7048,-0.7007,-0.702,-0.6978,-0.6968,-0.6985,-0.6949,-0.6956,-0.6927,-0.6933,-0.6932,-0.6886,-0.6883,-0.6841,-0.6828,-0.6807,-0.6835,-0.6817,-0.6844,-0.6838,-0.6875,-0.6873,-0.6998,-0.7013,-0.6878,-0.688,-0.6881,0,-0.7108,-0.7121,-0.7081,-0.708,-0.7065,-0.7064,-0.7059,-0.701,-0.7006,-0.698,-0.6991,-0.6983,-0.6974,-0.6972,-0.6938,-0.6928,-0.6909,-0.6954,-0.6908,-0.6921,-0.6911,-0.6912,-0.6913,-0.6964,-0.6966,-0.6968,-0.6969,0,-0.7218,-0.7198,-0.7191,-0.7179,-0.7173,-0.7161,-0.7145,-0.7147,-0.7094,-0.7093,-0.7088,-0.7082,-0.7069,-0.7062,-0.7046,-0.7028,-0.6991,-0.6983,-0.6991,-0.7006,-0.7021,-0.7015,-0.6872,-0.6981,-0.698,-0.6979,-0.6978,-0.6978,-0.7306,-0.7315,-0.7289,-0.7284,-0.7267,-0.7253,-0.7258,-0.723,-0.7225,-0.7211,-0.7183,-0.7183,-0.7158,-0.7133,-0.7119,-0.7119,-0.7096,-0.7106,-0.7109,-0.7113,-0.7121,-0.7021,-0.7115,-0.7115,-0.7115,-0.7114,-0.7114,0,-0.7415,-0.7395,-0.7391,-0.737,-0.7367,-0.733,-0.7311,-0.7311,-0.7312,-0.7292,-0.7284,-0.728,-0.7273,-0.7239,-0.7228,-0.7235,-0.7217,-0.7234,-0.7234,-0.723,-0.7141,-0.7136,-0.7249,-0.7249,-0.7249,-0.7249,-0.7249,-0.7249,-0.7471,-0.7486,-0.7462,-0.7468,-0.7448,-0.7448,-0.744,-0.7428,-0.7412,-0.7409,-0.7403,-0.7381,-0.7355,-0.7343,-0.7335,-0.7325,-0.7324,-0.7347,-0.7332,-0.7249,-0.7237,-0.7224,-0.7219,-0.7347,-0.7347,-0.7421,-0.7421,-0.7422]},{"header":{"parameterUnit":"m.s-1","parameterCategory":1,"la1":30.2991,"la2":30.254,"lo1":-89.0895,"lo2":-89.0444,"dy":0.0017,"dx":0.0017,"nx":28,"ny":28,"refTime":"2023-11-22T03:00:00:Z","depth":0,"parameterNumber":3,"parameterNumberName":"V-component_of_WINDS"},"data":[0,0,0,0,0,0,0,0,0,0,0,0,0,0,0,0,0,0,0,0,0,0,0,0,0,0,0,0,0,0,0,0,0,0,0,0,0,0,0,0,0,0,0,0,0,0,0,0,0,0,0,0,0,0,0,0,0,0,-0.3943,-0.3944,0,-0.398,-0.3981,-0.3981,-0.3982,-0.3982,-0.3981,-0.3981,-0.4021,-0.4022,-0.4023,0,0,0,0,0,0,0,0,0,0,0,0,0,-0.3873,-0.3875,-0.3943,-0.3944,-0.3944,-0.398,-0.3981,-0.3981,-0.3982,-0.3982,-0.3981,-0.3981,-0.402,-0.4022,-0.4024,0,0,0,0,0,0,0,0,0,0,0,0,0,-0.3906,-0.3875,-0.3943,-0.3949,-0.395,-0.398,-0.3981,-0.3982,-0.3982,-0.3982,-0.3981,-0.398,-0.4019,-0.4022,-0.4024,-0.4051,0,0,-0.4031,-0.4032,0,0,0,0,0,0,0,0,-0.3905,-0.3909,-0.3948,-0.3948,-0.395,-0.3976,-0.3971,-0.4005,-0.3983,-0.397,-0.3981,-0.398,-0.4006,-0.401,-0.4018,-0.4053,-0.4055,-0.4031,-0.4032,-0.4033,-0.4034,0,0,0,0,0,0,0,-0.3902,-0.3907,-0.3958,-0.3948,-0.3949,-0.395,-0.3954,-0.3977,-0.3992,-0.3971,-0.3971,-0.3976,-0.4007,-0.4016,-0.4019,-0.4056,-0.4031,-0.4033,-0.4034,-0.4035,-0.4115,-0.4116,0,0,0,0,0,0,-0.3899,-0.3906,-0.3957,-0.3959,-0.3925,-0.3952,-0.3956,-0.3968,-0.3991,-0.3994,-0.3976,-0.3975,-0.4013,-0.4017,-0.4021,-0.4054,-0.4033,-0.4035,-0.4037,-0.4114,-0.4115,-0.4116,0,0,0,0,0,0,-0.3897,-0.3903,-0.3955,-0.3932,-0.3939,-0.3954,-0.3967,-0.3969,-0.3979,-0.3995,-0.3998,-0.3983,-0.4012,-0.4017,-0.4044,-0.4056,-0.4036,-0.4038,-0.4113,-0.4114,-0.4115,-0.4122,0,0,0,0,0,0,-0.3895,-0.3903,-0.3913,-0.3933,-0.394,-0.3977,-0.3968,-0.3971,-0.3982,-0.3982,-0.4002,-0.4005,-0.4012,-0.404,-0.4046,-0.4058,-0.404,-0.4112,-0.4114,-0.4115,-0.4121,-0.4123,-0.4126,0,0,0,0,0,-0.3893,-0.3914,-0.3914,-0.392,-0.3954,-0.3978,-0.3983,-0.399,-0.3983,-0.3994,-0.4005,-0.4004,-0.4053,-0.4043,-0.4049,-0.4063,-0.4111,-0.4113,-0.4115,-0.412,-0.4123,-0.4126,0,0,0,0,0,0,-0.3897,-0.3917,-0.3917,-0.3945,-0.396,-0.3978,-0.3992,-0.3993,-0.401,-0.4009,-0.4018,-0.4022,-0.4048,-0.4058,-0.4046,-0.409,-0.4082,-0.4085,-0.4083,-0.4086,-0.4089,-0.4086,-0.4042,0,0,0,0,0,-0.3901,-0.3919,-0.3935,-0.3959,-0.3966,-0.3978,-0.3989,-0.3993,-0.4009,-0.4015,-0.4028,-0.4044,-0.4062,-0.4075,-0.4093,-0.4122,-0.4127,-0.4134,-0.4137,-0.4138,-0.4141,-0.4157,-0.4161,-0.4122,-0.4122,-0.4122,0,0,-0.391,-0.3923,-0.3934,-0.396,-0.3972,-0.399,-0.3983,-0.4003,-0.4017,-0.4018,-0.4044,-0.4053,-0.4072,-0.4099,-0.4112,-0.4108,-0.4153,-0.4141,-0.4142,-0.4144,-0.4159,-0.4163,-0.4166,-0.4123,-0.4123,-0.4122,0,0,-0.3935,-0.3947,-0.3967,-0.3979,-0.3997,-0.4005,-0.4009,-0.4028,-0.4034,-0.4059,-0.4061,-0.4077,-0.411,-0.4122,-0.4133,-0.4162,-0.4163,-0.4168,-0.4181,-0.4196,-0.4199,-0.4202,-0.4212,-0.4216,-0.4171,-0.4171,-0.4171,0,-0.3944,-0.3972,-0.3978,-0.3998,-0.4009,-0.401,-0.4031,-0.4043,-0.4066,-0.4074,-0.4069,-0.4109,-0.4121,-0.4152,-0.4159,-0.4167,-0.4173,-0.4166,-0.4198,-0.4201,-0.4204,-0.4214,-0.4218,-0.4171,-0.4171,-0.4171,-0.4171,0,-0.3982,-0.4001,-0.4016,-0.4037,-0.405,-0.4071,-0.408,-0.4092,-0.4095,-0.4103,-0.4129,-0.4143,-0.4164,-0.4172,-0.4175,-0.4202,-0.4199,-0.4196,-0.4188,-0.4208,-0.4218,-0.4221,-0.4172,-0.4172,-0.4172,-0.4172,0,0,-0.4013,-0.4036,-0.4042,-0.4051,-0.407,-0.4086,-0.4106,-0.4126,-0.4136,-0.4152,-0.4169,-0.4196,-0.4193,-0.4205,-0.4209,-0.4223,-0.4245,-0.4218,-0.4218,-0.4222,-0.4276,-0.4279,-0.4284,-0.4245,-0.4246,-0.4246,-0.4275,0,-0.4041,-0.4076,-0.4082,-0.4113,-0.4131,-0.4132,-0.4149,-0.4163,-0.4171,-0.4187,-0.4196,-0.4215,-0.4209,-0.4216,-0.4229,-0.4239,-0.4256,-0.4237,-0.4262,-0.4262,-0.4258,-0.4289,-0.4292,-0.4319,-0.4279,-0.4279,-0.428,0,-0.4079,-0.4094,-0.4127,-0.4143,-0.4151,-0.4167,-0.4185,-0.4201,-0.4216,-0.4221,-0.4234,-0.4236,-0.4257,-0.4247,-0.4276,-0.4264,-0.4274,-0.428,-0.4281,-0.4284,-0.4273,-0.4293,-0.4327,-0.4331,-0.4286,-0.4285,-0.4285,0,-0.4098,-0.4127,-0.4151,-0.4159,-0.4178,-0.4189,-0.4198,-0.4213,-0.4224,-0.424,-0.4248,-0.4266,-0.4277,-0.4291,-0.4298,-0.429,-0.4327,-0.4318,-0.4332,-0.4332,-0.4341,-0.434,-0.4377,-0.4346,-0.4346,-0.4346,-0.4346,0,-0.4129,-0.4149,-0.416,-0.4174,-0.4197,-0.4203,-0.4225,-0.4233,-0.4246,-0.4263,-0.4264,-0.4279,-0.4288,-0.4305,-0.4311,-0.4334,-0.4339,-0.4343,-0.4345,-0.4343,-0.4343,-0.4351,-0.435,-0.4347,-0.4347,-0.4346,-0.4346,0,-0.4155,-0.4163,-0.4188,-0.4204,-0.4208,-0.4224,-0.4238,-0.4252,-0.4259,-0.428,-0.4285,-0.4297,-0.4316,-0.4325,-0.4349,-0.4353,-0.438,-0.438,-0.4374,-0.4375,-0.4389,-0.4388,-0.4433,-0.444,-0.4404,-0.4404,-0.4404,0,-0.4175,-0.419,-0.4207,-0.4218,-0.4227,-0.4244,-0.4255,-0.4262,-0.4273,-0.4292,-0.4304,-0.4323,-0.4339,-0.437,-0.4381,-0.4399,-0.44,-0.4414,-0.4403,-0.4401,-0.4401,-0.44,-0.4402,-0.4417,-0.4417,-0.4418,-0.4418,0,-0.4209,-0.4212,-0.4228,-0.4245,-0.4259,-0.4273,-0.4286,-0.4295,-0.4303,-0.4317,-0.4336,-0.4348,-0.4373,-0.4392,-0.4411,-0.442,-0.4421,-0.4421,-0.4426,-0.4425,-0.4422,-0.4424,-0.4381,-0.442,-0.442,-0.442,-0.442,-0.442,-0.4233,-0.4247,-0.4261,-0.4278,-0.4289,-0.4302,-0.4316,-0.4324,-0.434,-0.436,-0.4363,-0.4384,-0.4398,-0.4423,-0.4433,-0.445,-0.4446,-0.4453,-0.4455,-0.4456,-0.4457,-0.4418,-0.4453,-0.4453,-0.4453,-0.4453,-0.4453,0,-0.4268,-0.4276,-0.4293,-0.4311,-0.4325,-0.4323,-0.4338,-0.435,-0.4368,-0.4382,-0.4397,-0.4419,-0.4438,-0.4449,-0.4468,-0.4479,-0.448,-0.4484,-0.4484,-0.4486,-0.4459,-0.4454,-0.4483,-0.4483,-0.4483,-0.4483,-0.4483,-0.4483,-0.4288,-0.4311,-0.4315,-0.4343,-0.4352,-0.4372,-0.438,-0.4392,-0.4402,-0.4427,-0.4442,-0.4449,-0.4462,-0.4481,-0.4498,-0.4501,-0.4508,-0.4513,-0.4515,-0.4491,-0.4488,-0.4485,-0.448,-0.4514,-0.4514,-0.4541,-0.4541,-0.4541]}]]